{"data":{"norad_id":52880,"epoch":"2026-09-19T11:43:30.733824Z","epoch_age_seconds":156190,"freshness":"FRESH","line1":"1 52880U 22062BC  26262.48855016 -.00001847  00000+0 -43551-4 0  9993","line2":"2 52880  53.1591 208.2212 0001098  90.6570 269.4558 15.34400134235544","mean_motion":15.34400134,"eccentricity":0.0001098,"inclination_deg":53.1591,"raan_deg":208.2212,"arg_perigee_deg":90.657,"mean_anomaly_deg":269.4558,"bstar":-4.3551e-5,"rev_number":23554,"period_min":93.847749885559,"perigee_km":461.95171771625,"apogee_km":463.45396614554,"semimajor_km":6840.8398419309,"source":"CELESTRAK","updated_at":"2026-09-20T09:00:40.138113Z"}}